Location: Sternwarte Stuttgart
(48.7670°N, 9.1830°E)
Time: 16:06:41
(UTC+02:00)

ISS - All Passes

Search period start: 21 October 2017 00:00
Search period end: 30 October 2017 23:00
Orbit: 401 x 408 km, 51.6° (Epoch: 22 October)

Date Brightness Start Highest point End Pass type
(mag) Time Alt. Az. Time Alt. Az. Time Alt. Az.
21 Oct - 09:59:24 10° SE 09:59:48 10° SE 10:00:11 10° SE daylight
21 Oct - 11:32:29 10° SW 11:35:39 52° SSE 11:38:50 10° ENE daylight
21 Oct - 13:08:56 10° W 13:12:09 54° N 13:15:23 10° ENE daylight
21 Oct - 14:45:40 10° WNW 14:48:54 56° N 14:52:09 10° E daylight
21 Oct - 16:22:13 10° WNW 16:25:23 47° SSW 16:28:32 10° SE daylight
22 Oct - 10:40:27 10° SSW 10:43:24 32° SE 10:46:22 10° E daylight
22 Oct - 12:16:29 10° W 12:19:44 67° NNW 12:23:00 10° ENE daylight
22 Oct - 13:53:17 10° WNW 13:56:29 50° N 13:59:41 10° E daylight
22 Oct - 15:29:49 10° WNW 15:33:05 73° SSW 15:36:20 10° ESE daylight
22 Oct - 17:07:04 10° W 17:09:07 16° SW 17:11:09 10° S daylight
23 Oct - 09:48:44 10° S 09:51:13 20° SE 09:53:43 10° E daylight
23 Oct - 11:24:06 10° WSW 11:27:22 90° ESE 11:30:38 10° ENE daylight
23 Oct - 13:00:50 10° WNW 13:04:01 48° N 13:07:13 10° ENE daylight
23 Oct - 14:37:27 10° WNW 14:40:43 79° NNE 14:43:59 10° ESE daylight
23 Oct - 16:14:12 10° W 16:16:57 25° SW 16:19:42 10° SSE daylight
24 Oct - 08:57:39 10° SSE 08:59:05 12° SE 09:00:30 10° ESE daylight
24 Oct - 10:31:48 10° SW 10:35:00 61° SSE 10:38:15 10° ENE daylight
24 Oct - 12:08:21 10° W 12:11:34 52° N 12:14:47 10° ENE daylight
24 Oct - 13:45:04 10° WNW 13:48:18 60° NNE 13:51:33 10° E daylight
24 Oct - 15:21:38 10° WNW 15:24:43 40° SSW 15:27:48 10° SE daylight
25 Oct - 09:39:39 10° SW 09:42:42 38° SSE 09:45:46 10° ENE daylight
25 Oct - 11:15:52 10° W 11:19:06 62° NNW 11:22:21 10° ENE daylight
25 Oct - 12:52:39 10° WNW 12:55:51 51° N 12:59:03 10° E daylight
25 Oct - 14:29:10 10° WNW 14:32:24 64° SSW 14:35:39 10° SE daylight
25 Oct - 16:06:45 10° WSW 16:08:22 13° SW 16:09:58 10° SSW daylight
26 Oct - 08:47:47 10° SSW 08:50:27 24° SE 08:53:08 10° E daylight
26 Oct - 10:23:24 10° WSW 10:26:40 81° NNW 10:29:56 10° ENE daylight
26 Oct - 12:00:10 10° WNW 12:03:21 48° N 12:06:33 10° ENE daylight
26 Oct - 13:36:45 10° WNW 13:40:02 88° NNE 13:43:18 10° ESE daylight
26 Oct - 15:13:38 10° W 15:16:11 21° SW 15:18:45 10° SSE daylight
27 Oct - 07:56:22 10° S 07:58:16 15° SE 08:00:10 10° ESE daylight
27 Oct - 09:31:01 10° WSW 09:34:16 70° SSE 09:37:31 10° ENE daylight
27 Oct - 11:07:40 10° W 11:10:51 50° N 11:14:03 10° ENE daylight
27 Oct - 12:44:20 10° WNW 12:47:35 66° NNE 12:50:51 10° E daylight
27 Oct - 14:20:56 10° W 14:23:57 34° SSW 14:26:56 10° SSE daylight
28 Oct - 08:38:47 10° SW 08:41:54 45° SSE 08:45:02 10° ENE daylight
28 Oct - 10:15:07 10° W 10:18:21 57° NNW 10:21:35 10° ENE daylight
28 Oct - 11:51:53 10° WNW 11:55:06 53° N 11:58:19 10° E daylight
28 Oct - 13:28:24 10° WNW 13:31:37 54° SSW 13:34:48 10° SE daylight
28 Oct - 15:06:35 10° WSW 15:07:29 11° SW 15:08:23 10° SSW daylight
29 Oct - 06:46:46 10° SSW 06:49:35 28° SE 06:52:26 10° E daylight
29 Oct - 08:22:36 10° WSW 08:25:52 73° NNW 08:29:07 10° ENE daylight
29 Oct - 09:59:23 10° WNW 10:02:34 48° N 10:05:46 10° E daylight
29 Oct - 11:35:56 10° WNW 11:39:13 83° SSW 11:42:29 10° ESE daylight
29 Oct - 13:12:59 10° W 13:15:18 18° SW 13:17:37 10° S daylight
30 Oct - 05:55:06 10° S 05:57:20 17° SE 05:59:34 10° E visible
30 Oct - 07:30:09 10° WSW 07:33:24 80° SSE 07:36:41 10° ENE daylight
30 Oct - 09:06:51 10° W 09:10:02 49° N 09:13:13 10° ENE daylight
30 Oct - 10:43:29 10° WNW 10:46:45 72° NNE 10:50:00 10° ESE daylight
30 Oct - 12:20:09 10° W 12:23:02 29° SW 12:25:55 10° SSE daylight
